sat.trackr.live / text

‹ back to catalog

STARLINK-2655

NORAD 48449 · 2021-040X

PAYLOAD ACTIVE UNKNOWN

§ Identity

Operator
Country
US
Launch date
2021-05-09
Launch site
AFETR
Launch vehicle
Mass (kg)
RCS (m²)

Purposes: comms

External: N2YO · Heavens-Above · Gunter

§ Orbital elements

Epoch: 2026-05-25T01:42:15.710688Z

Period
94.01 min
Inclination
53.1579°
Eccentricity
0.0001422
Mean motion
15.31693453 rev/d
Perigee alt
469.8 km
Apogee alt
471.7 km
Semi-major
6,848.9 km
B*
2.3943e-5
RAAN
182.8788°
Arg perigee
88.1595°
Mean anomaly
271.9569°
Rev number
27,838

§ Raw data

STARLINK-26551 48449U 21040X   26145.07101517  .00000378  00000+0  23943-4 0  99982 48449  53.1579 182.8788 0001422  88.1595 271.9569 15.31693453278385

JSON: /api/v1/satellites/48449 · /tle

For live sub-satellite position, see the globe view (requires WebGL).

§ Visibility from observer

Set your observer location to see the next 7 days of passes ≥ 10°. The values pass through the URL so the page stays shareable.

No JS? Fill the form by hand. The geolocation button needs JavaScript.